Location: Derby
(52.9213°N, 1.4761°W)
Time: 02:55:10
(UTC+01:00)

Vanguard 2 Rocket - Pass Details

Date: 26 May 2025
Orbit: 554 x 3293 km, 32.9° (Epoch: 12 June)

Event Time Altitude Azimuth Distance (km) Brightness Sun altitude
Rises 22:35:05 0° 232° (SW) 7,201 11.4 -9.1°
Reaches altitude 10° 22:40:36 10° 225° (SW) 6,238 11.0 -9.6°
Maximum altitude 22:56:54 34° 170° (S) 4,160 9.7 -10.9°
Drops below altitude 10° 23:09:43 10° 114° (ESE) 4,928 10.2 -11.8°
Sets 23:13:26 0° 105° (ESE) 5,581 10.5 -12.1°
